Flag for U.S.A. Weather past 2 weeks in Amarillo, Texas, U.S.A.

Now
11 °F

Low clouds.


Feels Like: -4 °F
Forecast: 13 / 32 °F
Wind: 13 mph from South

Location: Amarillo International Airport

Current Time: Feb 27, 2015 at 11:32:05 PM

Latest Report: Feb 27, 2015 at 10:53 PM


Visibility: 10 mi

Pressure: 30.36 "Hg

Humidity: 88%

Dew point: 8 °F

Location of AmarilloLocation

Historic Weather in Amarillo — Graph

°F

Amarillo temperature yesterday

Maximum temperature yesterday: 35 °F (at 12:53 AM)
Minimum temperature yesterday: 19 °F (at 7:53 AM)
Average temperature yesterday: 24 °F

Past Weeks' High & Low Weather Summary

 TemperatureHumidityPressure
High76 °F (Feb 14, 2:53 PM)96% (Feb 17, 3:53 AM)30.66 "Hg (Feb 17, 3:53 AM)
Low11 °F (Feb 23, 6:53 AM)11% (Feb 20, 4:53 PM)29.55 "Hg (Feb 20, 5:53 PM)
Average35 °F65%30.14 "Hg
* Reported Feb 12 9:53 PM — Feb 27 9:53 PM, Amarillo, Weather by CustomWeather, © 2015

Note: Actual official high and low records may vary slightly from our data, if they occured in-between our weather recording intervals... More about our weather records

Advertising

Amarillo weather history for previous 24 hours

 ConditionsComfort  
Time TempWeatherWind HumidityBarometerVisibility
9:53 PM
Fri, Feb 27
11 °FLight snow. Overcast.13 mph88%30.34 "Hg8 mi
9:04 PM12 °FMostly cloudy.16 mph84%30.22 "Hg9 mi
8:53 PM12 °FLight snow. Mostly cloudy.13 mph84%30.36 "Hg9 mi
7:53 PM13 °FLight snow. Mostly cloudy.14 mph84%30.33 "Hg9 mi
6:53 PM13 °FLight snow. Ice fog.13 mph84%30.34 "Hg5 mi
5:53 PM14 °FLight snow. Mostly cloudy.15 mph80%30.31 "Hg2 mi
4:53 PM15 °FLight snow. Mostly cloudy.13 mph77%30.33 "Hg2 mi
4:03 PM15 °FLight snow. Overcast.13 mph80%30.21 "Hg2 mi
3:53 PM15 °FLight snow. Mostly cloudy.13 mph80%30.34 "Hg2 mi
2:53 PM15 °FLight snow. Overcast.9 mph77%30.33 "Hg4 mi
1:53 PM15 °FLight snow. Overcast.13 mph77%30.35 "Hg4 mi
12:53 PM14 °FLight snow. Overcast.13 mph77%30.40 "Hg9 mi
12:00 PM14 °FLight snow. Overcast.13 mph77%30.30 "Hg2 mi
10:53 AM13 °FLight snow. Cloudy.15 mph77%30.42 "Hg3 mi
9:53 AM12 °FLight snow. Mostly cloudy.17 mph80%30.42 "Hg1 mi
8:53 AM12 °FLight snow. Ice fog.14 mph84%30.40 "Hg1 mi
8:04 AM12 °FLight snow. Ice fog.15 mph88%30.30 "Hg1 mi
7:53 AM12 °FSnow. Ice fog.14 mph88%30.40 "Hg1 mi
7:01 AM13 °FLight snow. Ice fog.12 mph88%30.29 "Hg1 mi
6:53 AM13 °FLight snow. Ice fog.13 mph84%30.40 "Hg1 mi
5:53 AM14 °FLight snow. Ice fog.10 mph84%30.38 "Hg1 mi
4:53 AM14 °FLight snow. Ice fog.13 mph87%30.35 "Hg1 mi
3:53 AM15 °FLight snow. Ice fog.13 mph83%30.33 "Hg1 mi
2:53 AM18 °FLight snow. Overcast.12 mph59%30.37 "Hg6 mi
1:53 AM19 °FOvercast.13 mph49%30.34 "Hg10 mi
12:53 AM19 °FOvercast.14 mph54%30.37 "Hg10 mi
11:53 PM
Thu, Feb 26
20 °FOvercast.16 mph52%30.38 "Hg10 mi
Weather by CustomWeather, © 2015

See weather overviewHow to use our weather pages